FENGYUN 1C DEB, 36223

Orbit data source: Space-Track

FENGYUN 1C DEB, 36223 is space debris in SSO originally from a launch on Mon, 10 May 1999 UTC launched from the Taiyaun Space Center, China (TSC). Fengyun 1C debris stems from the Chinese weather satellite Fengyun-1C, which was intentionally destroyed by a Chinese anti-satellite missile in 2007. This event dramatically increased the amount of space debris, with thousands of trackable fragments posing hazards to satellites and human spaceflight. The Fengyun 1C debris cloud has become a focal point in discussions about space sustainability and the need for international regulations to prevent the creation of new debris.

Loading next visibility...
Identifier
36223, 1999-025DUY
Orbit
SSO
Country
Flag of CNCN / PRC
Related business
Manufacturer
Unknown
Mission
Spacecraft
Bus & Motor
Unknown
Mass
Unknown
Launch date (UTC)
1999-05-10 (27 years ago)
Launch vehicle
Unknown
Launch site
Taiyaun Space Center, China (TSC)
Object type
Payload
Rocket body
Debris
Shape & HBR
Unknown shape, 0.1 m
Radar Cross Section
Small (<0.1 m²)

Expand to show TLE details & history
Last TLE update: 10 months ago

TLE from 10 months ago
0 FENGYUN 1C DEB
1 36223U 99025DUY 25003.04532673  .00059271  00000-0  12767-1 0  9999
2 36223  98.3330 300.0384 0062376 164.1654 196.1514 14.56911944 30883
Epoch: 2025-01-03T01:05Z
TLE epoch observation values (Epoch: 2025-01-03T01:05:16.229Z)
Latitude
0.00004°
Longitude
-179.19477°
Altitude
748.597 km
Speed
7.458 km/s
True Right ascension
20h 00m 09s
True Declination
0° 00' 00"
Sunlit
Object was in daylight at epoch
Visualization orbit readout
Latitude
Unknown
Longitude
Unknown
Altitude
Unknown
Speed
Unknown
Apparent Right ascension
Unknown
Apparent Declination
Unknown
Sunlit
N/A
Visualization observer readout
Local Sidereal Time
07:47:11
Azimuth
Unknown
Elevation
Unknown
Doppler factor
Unknown
Orbital elements
Apogee altitude
744.406 km
Perigee altitude
656.102 km
Semi-major axis
7,078.391 km
Eccentricity
0.00624
Inclination
98.333°
RAAN
300.0384°
Arg. of periapsis
164.1654°
True anomaly
195.95404°
Mean anomaly
196.1514°
Eccentric anomaly
196.05258°
Mean motion
3.64453 °/min
Orbital period
98.78 mins
BSTAR
0.012767
Loading maneuver chart data...
Computing Atmospheric mass density...

Documentation

Showing up to 5 results
|